EW5919 Weather Reports


time (UTC)temp
C
wind
direction
speed
KPH
gust
KPH
rain 1hr
cm
rain 24hr
cm
rain mn
cm
humidity
%
barometer
mb
20260906113026 21 187 0.0 0.0 0.00 0.00 0.00 95 1010.3
20260906111525 21 187 0.0 0.0 0.00 0.00 0.00 95 1010.2
20260906110025 21 187 0.0 0.0 0.00 0.00 0.00 95 1010.0
20260906104538 21 187 0.0 0.0 0.00 0.00 0.00 95 1010.1
20260906103040 21 187 0.0 0.0 0.00 0.00 0.00 95 1010.1
20260906101522 21 187 0.0 0.0 0.00 0.00 0.00 95 1010.2
20260906100027 21 187 0.0 0.0 0.00 0.00 0.00 95 1010.0
20260906094522 21 187 0.0 0.0 0.00 0.00 0.00 95 1010.0
20260906093026 21 187 0.0 0.0 0.00 0.00 0.00 94 1009.9
20260906091523 22 187 0.0 0.0 0.00 0.00 0.00 94 1009.4
20260906090019 22 187 0.0 0.0 0.00 0.00 0.00 94 1009.4
20260906084516 22 187 0.0 0.0 0.00 0.00 0.00 94 1009.6
20260906083116 22 187 0.0 0.0 0.00 0.00 0.00 94 1009.5
20260906081516 22 187 0.0 0.0 0.00 0.00 0.00 94 1009.5
20260906080014 22 187 0.0 0.0 0.00 0.00 0.00 94 1009.6
20260906074513 22 187 0.0 0.0 0.00 0.00 0.00 94 1009.5
20260906073012 22 187 0.0 0.0 0.00 0.00 0.00 94 1009.7
20260906071512 22 187 0.0 0.0 0.00 0.00 0.00 94 1009.7
20260906070020 22 214 0.0 0.0 0.00 0.00 0.00 93 1009.4
20260906064508 22 262 0.0 0.0 0.00 0.00 0.00 92 1009.4
20260906063007 22 262 0.0 0.0 0.00 0.00 0.00 92 1009.6
20260906061509 22 262 0.0 0.0 0.00 0.00 0.00 91 1009.8
20260906060004 22 262 0.0 0.0 0.00 0.00 0.00 91 1009.7
20260906054501 23 262 0.0 0.0 0.00 0.00 0.00 91 1009.9
20260906053059 23 262 0.0 0.0 0.00 0.00 0.00 91 1010.0
20260906051558 23 262 0.0 0.0 0.00 0.00 0.00 90 1010.1
20260906050105 23 262 0.0 0.0 0.00 0.00 0.00 90 1010.1
20260906044554 23 262 0.0 0.0 0.00 0.00 0.00 89 1010.1
20260906043053 23 262 0.0 0.0 0.00 0.00 0.00 88 1010.1
20260906041552 23 262 0.0 0.0 0.00 0.00 0.00 88 1010.1
20260906040054 24 262 0.0 0.0 0.00 0.00 0.00 87 1010.1
20260906034552 24 262 0.0 0.0 0.00 0.00 0.00 86 1010.3
20260906033049 24 262 0.0 0.0 0.00 0.00 0.00 85 1010.5
20260906031606 25 262 0.0 0.0 0.00 0.00 0.00 84 1010.5
20260906030046 25 184 0.0 0.0 0.00 0.00 0.00 84 1010.7
20260906024557 25 130 0.0 0.0 0.00 0.00 0.00 83 1010.8
20260906023054 25 191 0.0 0.0 0.00 0.00 0.00 83 1011.1
20260906021647 25 194 0.0 6.4 0.00 0.00 0.00 84 1011.4
20260906020044 25 288 0.0 1.6 0.00 0.00 0.00 83 1011.1
20260906014545 25 265 0.0 0.0 0.00 0.00 0.00 83 1010.7
20260906013044 25 166 0.0 8.0 0.00 0.00 0.00 81 1010.2
20260906011543 26 165 0.0 1.6 0.00 0.00 0.00 79 1010.2
20260906010049 26 175 0.0 4.8 0.00 0.00 0.00 77 1010.3
20260906004544 27 159 0.0 0.0 0.00 0.00 0.00 76 1009.4
20260906003042 28 99 0.0 1.6 0.00 0.00 0.00 72 1008.9
20260906001540 28 163 0.0 0.0 0.00 0.00 0.00 69 1008.8
20260906000053 29 156 0.0 6.4 0.00 0.00 0.00 66 1009.0
20260905234548 30 174 0.0 4.8 0.00 0.00 0.00 64 1009.2
20260905233040 31 134 0.0 22.5 0.00 0.00 0.00 62 1009.1
20260905231539 32 191 0.0 6.4 0.00 0.00 0.00 64 1008.2
20260905230038 33 190 0.0 4.8 0.00 0.00 0.00 63 1008.4
20260905224537 33 154 0.0 11.3 0.00 0.00 0.00 62 1008.2
20260905223037 35 189 0.0 6.4 0.00 0.00 0.00 60 1008.2
20260905221536 36 208 0.0 3.2 0.00 0.00 0.00 57 1008.2
20260905220039 37 231 0.0 0.0 0.00 0.00 0.00 45 1008.0
20260905214535 37 178 0.0 0.0 0.00 0.00 0.00 45 1007.7
20260905213034 38 211 0.0 0.0 0.00 0.00 0.00 45 1007.8
20260905211556 37 246 0.0 0.0 0.00 0.00 0.00 44 1007.9
20260905210033 37 313 0.0 0.0 0.00 0.00 0.00 46 1008.1
20260905204529 38 5 0.0 0.0 0.00 0.00 0.00 45 1008.2
20260905203028 38 173 0.0 0.0 0.00 0.00 0.00 44 1008.5
20260905201532 36 265 0.0 0.0 0.00 0.00 0.00 46 1008.6
20260905200027 37 258 0.0 1.6 0.00 0.00 0.00 44 1009.0
20260905194522 37 10 0.0 3.2 0.00 0.00 0.00 44 1009.1
20260905193020 37 314 0.0 0.0 0.00 0.00 0.00 44 1009.3
20260905191519 38 355 0.0 9.7 0.00 0.00 0.00 43 1009.3
20260905190116 38 301 0.0 0.0 0.00 0.00 0.00 44 1009.7
20260905184514 38 203 0.0 0.0 0.00 0.00 0.00 44 1009.8
20260905183009 37 293 0.0 1.6 0.00 0.00 0.00 45 1010.1
20260905181507 37 5 0.0 0.0 0.00 0.00 0.00 47 1010.2
20260905180005 37 190 0.0 0.0 0.00 0.00 0.00 47 1010.2
20260905174503 37 355 0.0 3.2 0.00 0.00 0.00 48 1010.6
20260905173104 37 308 0.0 0.0 0.00 0.00 0.00 50 1010.8
20260905171559 37 320 0.0 1.6 0.00 0.00 0.00 50 1011.0
20260905170054 36 320 0.0 1.6 0.00 0.00 0.00 53 1011.1
20260905164551 36 303 0.0 1.6 0.00 0.00 0.00 53 1011.2
20260905163047 35 336 0.0 3.2 0.00 0.00 0.00 56 1011.5
20260905161542 33 18 0.0 8.0 0.00 0.00 0.00 61 1011.7
20260905160039 33 45 0.0 0.0 0.00 0.00 0.00 62 1011.8
20260905154537 32 334 0.0 0.0 0.00 0.00 0.00 65 1012.0
20260905153032 31 22 0.0 0.0 0.00 0.00 0.00 68 1011.9
20260905151528 30 336 0.0 0.0 0.00 0.00 0.00 72 1012.0
20260905150023 29 295 0.0 0.0 0.00 0.00 0.00 76 1012.0
20260905144519 28 250 0.0 0.0 0.00 0.00 0.00 82 1012.2
20260905143014 26 312 0.0 0.0 0.00 0.00 0.00 87 1012.2
20260905141522 25 5 0.0 0.0 0.00 0.00 0.00 92 1012.4
20260905140006 24 331 0.0 0.0 0.00 0.00 0.00 95 1012.4
20260905134507 23 24 0.0 0.0 0.00 0.00 0.00 96 1012.4
20260905133005 23 102 0.0 0.0 0.00 0.00 0.00 96 1012.4
20260905131502 23 107 0.0 0.0 0.00 0.00 0.00 96 1012.6
20260905130002 22 131 0.0 0.0 0.00 0.00 0.00 96 1012.7
20260905124701 22 131 0.0 0.0 0.00 0.00 0.00 96 1012.6
20260905123059 22 131 0.0 0.0 0.00 0.00 0.00 96 1012.7
20260905121559 22 131 0.0 0.0 0.00 0.00 0.00 96 1012.6
20260905120057 22 131 0.0 0.0 0.00 0.00 0.00 96 1012.6
20260905114554 21 131 0.0 0.0 0.00 0.00 0.00 96 1012.3